Location: Unspecified
(43.4680°N, 87.1740°E)
Time: 16:00:16
(UTC+00:00)

Timation 2 Rocket - Pass Details

Date: 17 January 2020
Orbit: 904 x 1077 km, 70.0° (Epoch: 19 February)

Event Time Altitude Azimuth Distance (km) Brightness Sun altitude
Rises 12:11:32 0° 197° (SSW) 3,526 7.4 -12.4°
Reaches altitude 10° 12:14:00 10° 195° (SSW) 2,600 6.7 -12.9°
Maximum altitude 12:19:58 71° 112° (ESE) 991 3.9 -13.9°
Drops below altitude 10° 12:26:12 10° 30° (NNE) 2,712 5.9 -15.0°
Enters shadow 12:26:23 - 30° (NNE) 2,777 6.0 -15.0°
